Chatham, MA

9:51 AM EST on February 10, 2016 (GMT -0500)
Chatham Municipal

Weather History for KCQX - July, 2014

Change the Weather History Date:

Wednesday, July 2, 2014

  Actual Average Record
Temperature  
Mean Temperature 74 °F -  
Max Temperature 81 °F 74 °F 84 °F (2002)
Min Temperature 68 °F 60 °F 51 °F (1985)
Cooling Degree Days 9    
Growing Degree Days 24 (Base 50)    
Moisture  
Dew Point 70 °F    
Average Humidity 89    
Maximum Humidity 97    
Minimum Humidity 76    
Precipitation  
Precipitation 0.00 in - - ()
Sea Level Pressure  
Sea Level Pressure 29.95 in    
Wind  
Wind Speed 9 mph (SSW)    
Max Wind Speed 17 mph    
Max Gust Speed 28 mph    
Visibility 8 miles    
Events      
Averages and records for this station are not official NWS values.
T = Trace of Precipitation, MM = Missing Value Source: NWS Daily Summary

Daily Weather History Graph

Daily Weather History Graph

Search for Another Location

Airport or City:

Trip Planner

Search our weather history database for the weather conditions in past years. The results will help you decide how hot, cold, wet, or windy it might be!

Date:

Astronomy

Jul. 02, 2014 Rise Set
Actual Time 5:09 AM EDT 8:18 PM EDT
Civil Twilight 4:35 AM EDT 8:52 PM EDT
Nautical Twilight 3:52 AM EDT 9:35 PM EDT
Astronomical Twilight 3:00 AM EDT 10:27 PM EDT
Moon 10:14 AM EDT (7/2) 11:04 PM EDT (7/2)
Length of Visible Light 16h 16m
Length of Day
15h 08m
Waxing Crescent, 24% of the Moon is Illuminated
Jul 2
Waxing Crescent
Jul 5
First Quarter
Jul 12
Full
Jul 18
Last Quarter
Jul 26
New

Hourly Weather History & Observations

Time (EDT) Temp. Heat Index Dew Point Humidity Pressure Visibility Wind Dir Wind Speed Gust Speed Precip Events Conditions
12:14 AM 70.0 °F - 68.0 °F 93% 29.90 in 10.0 mi SW 6.9 mph 17.3 mph N/A   Partly Cloudy
12:44 AM 70.0 °F - 68.0 °F 93% 29.89 in 9.0 mi SW 10.4 mph 19.6 mph N/A   Mostly Cloudy
12:52 AM 70.0 °F - 68.0 °F 93% 29.89 in 9.0 mi SW 8.1 mph 19.6 mph N/A   Mostly Cloudy
1:30 AM 70.0 °F - 69.1 °F 97% 29.89 in 8.0 mi SSW 8.1 mph 19.6 mph N/A   Overcast
1:52 AM 71.1 °F - 69.1 °F 93% 29.89 in 8.0 mi SSW 9.2 mph 20.7 mph N/A   Overcast
2:52 AM 71.1 °F - 69.1 °F 93% 29.92 in 8.0 mi SW 6.9 mph 17.3 mph N/A   Overcast
3:52 AM 71.1 °F - 69.1 °F 93% 29.93 in 3.0 mi SW 9.2 mph - N/A   Overcast
4:15 AM 70.0 °F - 69.1 °F 97% 29.93 in 2.0 mi SW 8.1 mph 18.4 mph N/A   Overcast
4:33 AM 70.0 °F - 69.1 °F 97% 29.94 in 1.2 mi SW 8.1 mph - N/A   Overcast
4:52 AM 70.0 °F - 69.1 °F 97% 29.94 in 1.0 mi SW 9.2 mph 17.3 mph N/A   Mist
5:14 AM 70.0 °F - 69.1 °F 97% 29.94 in 3.0 mi SW 9.2 mph - N/A   Overcast
5:52 AM 70.0 °F - 69.1 °F 97% 29.95 in 4.0 mi SW 8.1 mph - N/A   Overcast
6:52 AM 71.1 °F - 69.1 °F 93% 29.96 in 7.0 mi SW 8.1 mph - N/A   Overcast
7:52 AM 73.9 °F - 70.0 °F 87% 29.97 in 9.0 mi SW 8.1 mph - N/A   Overcast
8:48 AM 75.2 °F - 69.8 °F 83% 29.96 in 10.0 mi SSW 10.4 mph - N/A   Overcast
8:52 AM 73.9 °F - 70.0 °F 87% 29.97 in 10.0 mi SSW 11.5 mph 18.4 mph N/A   Overcast
9:17 AM 75.0 °F - 70.0 °F 84% 29.96 in 10.0 mi SSW 8.1 mph - N/A   Overcast
9:38 AM 75.9 °F - 71.1 °F 85% 29.96 in 10.0 mi SSW 12.7 mph 20.7 mph N/A   Overcast
9:52 AM 77.0 °F - 71.1 °F 82% 29.97 in 10.0 mi SSW 10.4 mph 21.9 mph N/A   Mostly Cloudy
10:33 AM 78.1 °F - 71.1 °F 79% 29.96 in 10.0 mi SSW 10.4 mph 20.7 mph N/A   Scattered Clouds
10:52 AM 78.1 °F - 71.1 °F 79% 29.98 in 10.0 mi SSW 16.1 mph 20.7 mph N/A   Partly Cloudy
11:52 AM 79.0 °F - 72.0 °F 79% 29.98 in 10.0 mi SW 12.7 mph 21.9 mph N/A   Clear
12:52 PM 80.1 °F 83.8 °F 72.0 °F 76% 29.98 in 10.0 mi SSW 15.0 mph 27.6 mph N/A   Clear
1:16 PM 78.1 °F - 71.1 °F 79% 29.98 in 10.0 mi SSW 16.1 mph 25.3 mph N/A   Partly Cloudy
1:52 PM 79.0 °F - 72.0 °F 79% 29.97 in 10.0 mi SW 17.3 mph 25.3 mph N/A   Partly Cloudy
3:18 PM 78.1 °F - 72.0 °F 81% 29.95 in 10.0 mi SSW 15.0 mph 25.3 mph N/A   Mostly Cloudy
3:52 PM 77.0 °F - 72.0 °F 84% 29.96 in 10.0 mi SSW 10.4 mph 21.9 mph N/A   Overcast
5:52 PM 75.9 °F - 71.1 °F 85% 29.98 in 10.0 mi SSW 11.5 mph 21.9 mph N/A   Overcast
6:23 PM 75.0 °F - 71.1 °F 87% 29.97 in 10.0 mi SSW 13.8 mph 19.6 mph N/A   Overcast
6:52 PM 73.9 °F - 71.1 °F 91% 29.99 in 10.0 mi SW 5.8 mph 19.6 mph N/A   Overcast
7:52 PM 73.0 °F - 71.1 °F 93% 30.01 in 10.0 mi SW 4.6 mph - N/A   Overcast
8:52 PM 72.0 °F - 70.0 °F 93% 30.01 in 9.0 mi Variable 6.9 mph - N/A   Overcast
9:52 PM 72.0 °F - 70.0 °F 93% 29.99 in 10.0 mi SSW 8.1 mph - N/A   Overcast
10:52 PM 70.0 °F - 69.1 °F 97% 29.97 in 10.0 mi South 5.8 mph - N/A   Overcast
11:16 PM 68.0 °F - 66.9 °F 96% 29.96 in 2.5 mi South 6.9 mph - N/A   Overcast
11:23 PM 70.0 °F - 69.1 °F 97% 29.96 in 7.0 mi SSW 9.2 mph - N/A   Overcast
11:52 PM 71.1 °F - 70.0 °F 96% 29.97 in 10.0 mi SSW 10.4 mph 19.6 mph N/A   Overcast